Clinton-Sherman, OK

1:18 PM CDT on May 25, 2017 (GMT -0500)
Clinton-Sherman

Weather History for KCSM - October, 2012

Change the Weather History Date:

Sunday, October 28, 2012

  Actual Average Record
Temperature  
Mean Temperature 45 °F -  
Max Temperature 61 °F 64 °F 88 °F (2016)
Min Temperature 30 °F 45 °F 30 °F (2012)
Degree Days  
Heating Degree Days 20    
Moisture  
Dew Point 24 °F    
Average Humidity 45    
Maximum Humidity 69    
Minimum Humidity 25    
Precipitation  
Precipitation 0.00 in - - ()
Sea Level Pressure  
Sea Level Pressure 30.25 in    
Wind  
Wind Speed 9 mph (SSE)    
Max Wind Speed 13 mph    
Max Gust Speed 17 mph    
Visibility 10 miles    
Events      
Averages and records for this station are not official NWS values.
T = Trace of Precipitation, MM = Missing Value Source: NWS Daily Summary

Daily Weather History Graph

Daily Weather History Graph

Search for Another Location

Airport or City:

Trip Planner

Search our weather history database for the weather conditions in past years. The results will help you decide how hot, cold, wet, or windy it might be!

Date:

Astronomy

Oct. 28, 2012 Rise Set
Actual Time 7:55 AM CDT 6:45 PM CDT
Civil Twilight 7:28 AM CDT 7:11 PM CDT
Nautical Twilight 6:59 AM CDT 7:41 PM CDT
Astronomical Twilight 6:29 AM CDT 8:11 PM CDT
Moon 6:04 PM CDT (10/28) 6:50 AM CDT (10/28)
Length of Visible Light 11h 42m
Length of Day
10h 50m
Waxing Gibbous, 99% of the Moon is Illuminated
Oct 28
Waxing Gibbous
Oct 29
Full
Nov 6
Last Quarter
Nov 13
New
Nov 20
First Quarter

Hourly Weather History & Observations

Time (CDT) Temp. Windchill Dew Point Humidity Pressure Visibility Wind Dir Wind Speed Gust Speed Precip Events Conditions
1:53 AM 37.9 °F 31.5 °F 21.0 °F 51% 30.27 in 10.0 mi ESE 9.2 mph - N/A   Clear
2:53 AM 37.0 °F 30.4 °F 21.9 °F 54% 30.27 in 10.0 mi ESE 9.2 mph - N/A   Clear
3:53 AM 34.0 °F 29.8 °F 21.9 °F 61% 30.27 in 10.0 mi Variable 4.6 mph - N/A   Clear
4:53 AM 34.0 °F 28.0 °F 21.9 °F 61% 30.27 in 10.0 mi SE 6.9 mph - N/A   Clear
5:53 AM 34.0 °F 27.2 °F 21.9 °F 61% 30.28 in 10.0 mi SE 8.1 mph - N/A   Clear
6:53 AM 35.1 °F 27.9 °F 21.9 °F 59% 30.30 in 10.0 mi ESE 9.2 mph - N/A   Clear
7:53 AM 30.9 °F 22.2 °F 21.9 °F 69% 30.31 in 10.0 mi SE 10.4 mph - N/A   Clear
8:53 AM 39.0 °F 33.4 °F 27.0 °F 62% 30.31 in 10.0 mi SE 8.1 mph - N/A   Clear
9:53 AM 45.0 °F 41.2 °F 24.1 °F 44% 30.31 in 10.0 mi SSE 6.9 mph - N/A   Clear
10:53 AM 48.9 °F - 21.9 °F 35% 30.32 in 10.0 mi SSW 6.9 mph - N/A   Clear
11:53 AM 51.1 °F - 23.0 °F 33% 30.31 in 10.0 mi South 9.2 mph - N/A   Clear
12:53 PM 55.0 °F - 24.1 °F 30% 30.28 in 10.0 mi SSW 9.2 mph - N/A   Clear
1:53 PM 57.9 °F - 24.1 °F 27% 30.25 in 10.0 mi South 9.2 mph - N/A   Clear
2:53 PM 60.1 °F - 25.0 °F 26% 30.21 in 10.0 mi South 6.9 mph - N/A   Clear
3:53 PM 60.1 °F - 24.1 °F 25% 30.20 in 10.0 mi SSE 12.7 mph 17.3 mph N/A   Clear
4:53 PM 60.1 °F - 24.1 °F 25% 30.19 in 10.0 mi South 9.2 mph - N/A   Clear
5:53 PM 57.0 °F - 25.0 °F 29% 30.19 in 10.0 mi South 10.4 mph - N/A   Clear
6:53 PM 52.0 °F - 26.1 °F 37% 30.19 in 10.0 mi SSE 10.4 mph - N/A   Clear
7:53 PM 46.0 °F 41.4 °F 26.1 °F 46% 30.22 in 10.0 mi South 9.2 mph - N/A   Clear
8:53 PM 46.9 °F - 27.0 °F 46% 30.23 in 10.0 mi South 10.4 mph - N/A   Clear
9:53 PM 48.0 °F - 28.0 °F 46% 30.21 in 10.0 mi SSE 12.7 mph - N/A   Clear
10:53 PM 45.0 °F 38.9 °F 28.9 °F 53% 30.23 in 10.0 mi SSE 12.7 mph - N/A   Clear
11:53 PM 44.1 °F 37.7 °F 28.9 °F 55% 30.23 in 10.0 mi SE 12.7 mph - N/A   Clear